Regional Weather Roundup
Issued by NWS Portland, ME

Current Version | Previous Version | Text Only | Print | Product List | Glossary Off
Versions: 1 2 3 4 5 6 7 8 9 10 11 12 13 14 15 16 17 18 19 20 21 22 23 24 25 26 27 28 29 30 31 32 33 34 35 36 37 38 39 40 41 42 43 44 45 46 47 48 49 50
000 ASUS41 KGYX 221610 RWRGYX WEATHER ROUNDUP FOR MAINE AND NEW HAMPSHIRE NATIONAL WEATHER SERVICE GRAY ME 1200 PM EDT SAT SEP 22 2018 MEZ002-005-006-010-012-015-018-020-021-024-026-027-029-221700- MAINE CITY SKY/WX TMP DP RH WIND PRES REMARKS PORTLAND PTSUNNY 64 44 48 NW17G25 30.08R SANFORD FAIR 67 49 52 NW10G16 30.08R BAR HARBOR FAIR 59 40 49 NW12G18 30.02R WISCASSET FAIR 60 43 53 NW9G17 30.08R ROCKLAND FAIR 60 40 47 VRB7G16 30.04R FRYEBURG FAIR 60 41 49 VRB6 30.11R LEWISTONAUBURN FAIR 57 39 51 N8G22 30.10R AUGUSTA FAIR 58 41 53 NW7 30.07R WATERVILLE FAIR 61 38 42 NW13G20 30.05R BANGOR PTSUNNY 61 39 44 NW20G26 30.03R GREENVILLE N/A 51 35 54 NW28G38 30.03R MILLINOCKET FAIR 57 36 45 NW18G25 30.03R HOULTON FAIR 57 36 45 NW18G31 29.98R PRESQUE ISLE FAIR 55 34 45 NW16G30 30.01R FRENCHVILLE FAIR 54 32 43 NW17G32 29.98R CARIBOU FAIR 55 33 43 NW15G24 29.99R $$ NHZ002-005-008-009-011-012-014-221700- NEW HAMPSHIRE CITY SKY/WX TMP DP RH WIND PRES REMARKS ROCHESTER FAIR 65 48 54 NW16G25 30.07R NASHUA FAIR 67 47 48 N15 30.10R MANCHESTER PTSUNNY 69 45 41 N14 30.08R CONCORD FAIR 64 46 52 NW15G24 30.12R LACONIA FAIR 60 45 57 W9 30.13R PLYMOUTH FAIR 60 42 52 NW13G18 30.13S BERLIN FAIR 57 38 48 N16G22 30.13R WHITEFIELD PTSUNNY 58 42 55 NW13 30.15S JAFFREY FAIR 64 47 53 NW9G18 30.13R KEENE FAIR N/A N/A N/A N12G21 30.14R LEBANON FAIR 61 39 44 N13G22 30.16R MT WASHINGTON FOG 30 30 100 NW59 N/A VSB 1/4 WCI 11 $$ VTZ005-007-008-221700- VERMONT CITY SKY/WX TMP DP RH WIND PRES REMARKS ST JOHNSBURY N/A 57 39 51 MISG 30.15R MONTPELIER FAIR 55 40 56 NW14 30.22R BURLINGTON PTSUNNY 59 38 45 NW9 30.22R $$ MAZ007-012-024-CTZ003-RIZ002-NYZ038-NYZ072-221700- SOUTHERN NEW ENGLAND AND NY CITY SKY/WX TMP DP RH WIND PRES REMARKS BOSTON PTSUNNY 69 48 47 N17G28 30.08R WORCESTER FAIR 64 49 57 NW14 30.10R NANTUCKET FAIR 76 56 49 NW16G23 30.05R PROVIDENCE PTSUNNY 69 52 54 NW13 30.09S HARTFORD PTSUNNY 67 50 54 N14 30.12R ALBANY PTSUNNY 64 46 52 NW14 30.19R NEW YORK CITY PTSUNNY 73 52 47 N12 30.11R $$ ANZ081-ANZ082-ANZ150-NHZ014-MEZ023>029-221700- COASTAL MARINE OBSERVATIONS STATION/POSITION TIME TEMP WIND PRES WAVE AIR SEA DIR/SP/G HT/PER (UTC) (F) (DEG/KT/KT) (MB) (FT/S) MOUNT DESERT ROC 1600 59 310/ 18/ 18 1016.2R MATINICUS ROCK 1600 61 330/ 24/ 27 1016.5R ISLE OF SHOALS 1600 64 330/ 20/ 21 1017.6R JEFFREYS LEDGE 1536 63 N/A 5/11 $$ .............KEY.............. WCI - WIND CHILL TC - TEMPERATURE IN CELSIUS VSB - VISIBILITY IN MILES HX - HEAT INDEX FAIR- INDICATES FEW OR NO CLOUDS BELOW 12,000 FT, WITH NO SIGNIFICANT WEATHER AND/OR OBSTRUCTIONS TO VISIBILITY.

USA.gov is the U.S. government's official web portal to all federal, state and local government web resources and services.